Regional Weather Roundup
Issued by NWS

Home | Current Version | Previous Version | Graphics & Text | Print | Product List | Glossary On
Versions: 1 2 3 4 5 6 7 8 9 10 11 12 13 14 15 16 17 18 19 20 21 22 23 24 25 26 27 28 29 30 31 32 33 34 35 36 37 38 39 40 41 42 43 44 45 46 47 48 49 50
000
ASUS43 KDTX 230501
RWRMI
MICHIGAN HOURLY REGIONAL WEATHER ROUNDUP
NATIONAL WEATHER SERVICE DETROIT/PONTIAC MI
1200 AM EST TUE JAN 23 2018

NOTE: "FAIR" INDICATES FEW OR NO CLOUDS BELOW 12,000 FEET WITH NO
SIGNIFICANT WEATHER AND/OR OBSTRUCTION TO VISIBILITY.

MIZ047>049-052>055-059>063-066>070-074>076-081>083-230600-
SOUTHEAST LOWER MICHIGAN

CITY           SKY/WX    TMP DP  RH WIND       PRES   REMARKS
ADRIAN         MOCLDY    44  42  93 W8        29.50F
ALMA           FOG       40  40 100 CALM      29.45F VSB<1/4
ANN ARBOR      FAIR      41  41 100 CALM      29.46F FOG
BAD AXE        FOG       43  43 100 S7        29.49F VSB 1
CARO           FOG       41  41 100 SE3       29.48S VSB 1/4
DETROIT CITY   CLOUDY    48  44  86 S9        29.52F
DETROIT        CLOUDY    48  45  89 SE3       29.50F
FLINT          FAIR      43  42  97 S6        29.47F FOG
GROSSE ILE     CLOUDY    47  44  91 MISG      29.48F
HILLSDALE      CLOUDY    45  41  87 W14G24    29.50R
HOWELL         FAIR      46  46  99 S5        29.46F FOG

CITY           SKY/WX    TMP DP  RH WIND       PRES   REMARKS
JACKSON        CLOUDY    45  45 100 S7        29.47F FOG
LAMBERTVILLE   MOCLDY    48  46  91 S5        29.48F
LANSING        FAIR      44  44 100 SE8       29.46F FOG
LAPEER         FAIR      45  44  99 CALM      29.49F FOG
MONROE         FAIR      48  45  91 S9        29.47F
MT. CLEMENS    MOCLDY   N/A N/A N/A S5          N/A
PONTIAC        CLOUDY    46  46 100 CALM      29.48F
PORT HOPE        N/A     36  35  96 SE7       29.47F WCI  30
PORT HURON     LGT RAIN  45  43  93 S5        29.53F
TRI CITIES     FOG       42  42 100 SE8       29.46F VSB<1/4
MIDLAND        FOG       45  45 100 CALM      29.46S VSB 1/4
TROY           CLOUDY    49  46  89 S5        29.52F
SAGINAW HB     FOG       39  37  93 S7        29.46F VSB 1/4 WCI  34
$$
MIZ043>046-050>051-056>058-064>065-071>073-077>080-230600-
SOUTHWEST LOWER MICHIGAN

CITY           SKY/WX    TMP DP  RH WIND       PRES   REMARKS
BATTLE CREEK   CLOUDY    44  42  93 SW15      29.49R
BENTON HARBOR  CLOUDY    41  34  76 SW13      29.50F
BIG RAPIDS     FOG       36  34  94 CALM      29.42F VSB 1/4
COLDWATER      CLOUDY    44  43  96 W18G25    29.49S
HOLLAND        LGT RAIN  40  38  93 W15G30    29.48R WCI  32
GRAND RAPIDS   CLOUDY    44  43  96 S9        29.44S FOG
IONIA          FOG       39  39 100 SE8       29.43F VSB<1/4 WCI  34
KALAMAZOO      LGT RAIN  43  38  82 W17G23    29.51R
LUDINGTON      DRIZZLE   40  40 100 CALM      29.42F
MARSHALL       CLOUDY    46  42  87 SW17G23   29.49R
MOUNT PLEASANT FOG       37  36  96 CALM      29.45F VSB 1/4
MUSKEGON       CLOUDY    43  40  89 SW18G28   29.44R
SOUTH HAVEN    CLOUDY    41  37  87 SW9       29.50S
$$
MIZ016>042-230600-
NORTHERN LOWER MICHIGAN

CITY           SKY/WX    TMP DP  RH WIND       PRES   REMARKS
ALPENA         CLOUDY    35  35 100 NE8       29.51F FOG     WCI  29
BEAVER ISLAND  CLOUDY    28  26  92 E8        29.56F WCI  19
BELLAIRE       CLOUDY    34  34 100 NE3       29.49F
CADILLAC       FOG       35  34  98 E3        29.42F VSB 1/2
CHARLEVOIX     CLOUDY    31  31 100 NE3       29.53F
FRANKFORT      CLOUDY    37  37 100 NE9       29.43F FOG     WCI  30
GAYLORD        CLOUDY    31  31 100 NE8       29.48F WCI  23
GRAYLING       CLOUDY    33  32  96 N5        29.48F FOG     WCI  28
HARBOR SPRINGS CLOUDY    29  28  96 NE6       29.53F WCI  23
HOUGHTON LAKE  FOG       35  34  96 NE5       29.44F VSB 1/4 WCI  31
MANISTEE       FOG       38  38 100 W8        29.42F VSB 1/4 WCI  32
OSCODA         FOG       35  34  99 NW5       29.48F VSB 1/4 WCI  31
PELLSTON       MIX PCPN  29  27  92 NE10      29.56F FOG     WCI  20
ROGERS CITY    CLOUDY    30  29  96 NE6       29.56F WCI  24
TRAVERSE CITY  CLOUDY    36  35  96 NE6       29.46F FOG     WCI  31
$$
MIZ007>008-015-230600-
EASTERN UPPER MICHIGAN

CITY           SKY/WX    TMP DP  RH WIND       PRES   REMARKS
KINROSS        LGT SNOW  21  19  92 NE14      29.62F FOG     WCI   8
MACKINAC ISLAN LGT SNOW  25  25 100 NE23      29.57F WCI  10
NEWBERRY       CLOUDY    21  20  96 NE14      29.62S FOG     WCI   8
S. S. MARIE    LGT SNOW  22  18  85 NE12G23   29.63F FOG     WCI  10
MUNISING         N/A     26  25  96 NE17      29.64F WCI  13
$$
MIZ004>006-011>014-085-230600-
CENTRAL UPPER MICHIGAN

CITY           SKY/WX    TMP DP  RH WIND       PRES   REMARKS
ESCANABA       LGT SNOW  27  24  89 N8        29.60F FOG     WCI  19
MENOMINEE      LGT SNOW  28  26  92 NE12      29.58S FOG     WCI  18
SAWYER-GWINN   LGT SNOW  25  23  93 NE17G28   29.62F WCI  11
$$
MIZ001>003-009>011-084-230600-
WESTERN UPPER MICHIGAN

CITY           SKY/WX    TMP DP  RH WIND       PRES   REMARKS
IRON MOUNTAIN  MIX PCPN  27  22  81 N14G21    29.61S WCI  16
HOUGHTON       LGT SNOW  22  16  78 NE16G26   29.72F WCI   8
COPPER HARBOR    N/A     24  21  88 E22G32    29.78F WCI   9
IRONWOOD       MIX PCPN  21  20  96 N15G29    29.77R FOG     WCI   8
$$

ABBREVIATIONS USED IN REMARKS
   TC - TEMPERATURE IN CELSIUS
  WCI - WIND CHILL INDEX
   HX - HEAT INDEX
  VSB - VISIBILITY




USA.gov is the U.S. government's official web portal to all federal, state and local government web resources and services.